Regional Weather Roundup
Issued by NWS

Home | Current Version | Previous Version | Text Only | Print | Product List | Glossary Off
Versions: 1 2 3 4 5 6 7 8 9 10 11 12 13 14 15 16 17 18 19 20 21 22 23 24 25 26 27

000
ASUS45 KSLC 051210
RWRUT

UTAH REGIONAL WEATHER ROUNDUP
NATIONAL WEATHER SERVICE SALT LAKE CITY UT
500 AM MST MON DEC 05 2016

UTZ001>011-023>025-051300-

NORTHERN UTAH

CITY           SKY/WX    TMP DP  RH WIND       PRES   REMARKS
BRIGHAM CITY     N/A     32   3  29 N16       29.93R WCI  21
HILL AFB       CLOUDY    31  14  49 NW17      29.89R WCI  19
LOGAN          CLOUDY   N/A N/A N/A N15G22    29.92R
OGDEN          CLOUDY    32  15  49 N8G17     29.90R WCI  25
SALT LAKE CITY CLOUDY    34  24  67 N13       29.94R WCI  25
TOOELE VALLEY  CLOUDY    34  23  64 NW13      29.95R WCI  25
WENDOVER       MOCLDY    32  16  51 NW25G39   29.92R WCI  19
HEBER CITY     CLOUDY    36  23  60 NW20G26   29.77R WCI  25
WEST JORDAN    CLOUDY    32  28  85 NW16G22   29.93R WCI  22

$$

UTZ011>015-024>027-051300-

CENTRAL/NORTHEAST UTAH

CITY           SKY/WX    TMP DP  RH WIND       PRES   REMARKS
PROVO AIRPORT  MOCLDY    37  26  64 N25G41    29.86R WCI  25
MOAB/CANYONLAN PTCLDY    25  17  72 NW7       29.82F WCI  17
DELTA          MOCLDY    34  18  51 S6        29.83S WCI  29
PRICE          CLOUDY    27  16  63 CALM      29.80F
RICHFIELD      MOCLDY    46  18  31 SW10      29.83
ROOSEVELT      CLOUDY    27  19  74 CALM      29.77S
VERNAL         CLOUDY    20  15  81 W5        29.74F WCI  13

$$

UTZ013>016-019>022-027-051300-

SOUTHERN UTAH

CITY           SKY/WX    TMP DP  RH WIND       PRES   REMARKS
BRYCE CANYON   PTCLDY    36  15  42 W13       29.90S WCI  27
CEDAR CITY     PTCLDY    34  14  43 S7        29.88F WCI  28
MILFORD        PTCLDY    36  10  34 S17       29.86S WCI  26
ST GEORGE      PTSUNNY   30  18  59 CALM      29.95S
HANKSVILLE     MOCLDY    21  14  73 CALM      29.87R
KANAB          MOCLDY    25  18  74 CALM      29.96
BLANDING       MOCLDY    28  18  66 NW3       29.98F

$$

REGIONAL REPORTS     COLORADO/ARIZONA

CITY           SKY/WX    TMP DP  RH WIND       PRES   REMARKS
CRAIG, CO      CLOUDY    25  14  63 CALM      29.70F
GRAND JUNCTION CLOUDY    26  21  81 E3        29.81F
RIFLE, CO      CLOUDY    26  20  77 W6        29.80F WCI  19
MONTROSE, CO   CLOUDY    31  20  63 VRB3      29.82F
CORTEZ, CO     CLOUDY    23  19  85 E3        29.92F
COLORADO CITY    N/A     25  21  86 SE3       29.94F
PAGE, AZ       PTCLDY    31  16  54 CALM      29.90F
GRAND CANYON   CLEAR     19  16  88 NE3       29.96F
KINGMAN, AZ    PTCLDY    38  11  32 SE6       29.90F WCI  33
FLAGSTAFF, AZ  PTCLDY    23  16  74 CALM      29.97F

$$

REGIONAL REPORTS    NEVADA/IDAHO/WYOMING

CITY           SKY/WX    TMP DP  RH WIND       PRES   REMARKS
LAS VEGAS, NV  MOCLDY    42  13  30 S5        29.89F
ELY, NY        CLEAR     34  18  52 N5        29.92R WCI  30
ELKO, NV       CLOUDY    28  15  58 NE7       30.00R WCI  21
POCATELLO, ID  PTCLDY    21  17  84 SW20G29   29.93R WCI   6
BURLEY, ID     CLEAR     21  15  78 W17G26    29.97R WCI   7
FORT BRIDGER,  SNOW      24  24 100 W26G33    29.77R VSB 1/2 WCI   8
EVANSTON, WY   LGT SNOW  19  13  77 NW28G36   29.79R WCI   1
ROCK SPRINGS,  LGT SNOW  30  26  85 W36G43    29.64R FOG     WCI  14

$$




USA.gov is the U.S. government's official web portal to all federal, state and local government web resources and services.